HJ-1B

Last updated on Thu Apr 18 2024 00:02:30 GMT+0000 (Coordinated Universal Time)

1 33321U 08041B 24108.59534484 .00002754 00000+0 36668-3 0 9991 2 33321 97.6299 123.1505 0036967 253.3243 106.3910 14.79979927841328

Satellite not in orbit

HJ-1B